Wind_Speed
20 23 25 13 11 12 19 22 26 25 22 27 32 38 33 28 31 32 33 32 30 30 33 36 34 36 36 31 26 26 22 21 23 24 26 25 25 26 28 25 22 22 21 20
17 18 6 7 12 18 21 25 29 33 26 25 38 46 41 39 36 35 32 31 33 33 36 40 40 41 42 34 28 29 21 19 20 22 22 25 26 28 28 24 22 21 21 19
18 10 11 17 16 17 20 19 26 29 28 33 34 53 46 36 33 31 29 28 32 35 41 40 45 47 47 41 34 31 24 22 22 23 25 28 29 28 27 21 21 21 20 18
15 14 14 17 19 19 34 28 29 31 36 32 24 20 56 42 34 25 17 25 30 39 45 41 38 48 49 42 42 35 30 29 22 21 20 22 20 23 22 24 23 22 20 19
19 22 25 28 28 27 36 31 26 30 33 29 38 12 56 30 26 35 36 30 24 28 41 47 41 36 48 49 47 42 31 26 20 19 19 22 29 25 26 25 23 21 19 19
29 30 30 32 34 28 31 38 40 34 29 16 58 23 40 53 41 41 30 23 29 32 34 38 39 38 47 53 52 46 30 19 21 20 21 24 27 24 25 23 21 20 19 18
33 38 39 37 41 38 31 27 10 4 6 12 35 19 41 54 43 45 39 31 22 19 28 37 39 39 46 55 56 42 28 23 24 25 23 25 24 25 24 24 23 21 19 19
27 44 9 5 10 19 24 24 15 7 9 16 30 14 28 35 39 40 27 27 37 45 37 39 40 38 44 56 44 29 23 26 25 26 23 23 27 26 25 23 22 20 19 17
20 42 42 33 32 33 34 28 30 35 39 23 36 45 45 44 35 30 31 34 42 38 36 36 37 38 41 49 26 15 20 21 24 20 19 23 27 25 22 22 21 20 18 17
14 22 44 47 42 43 32 33 30 21 12 22 13 20 24 15 20 25 23 23 28 33 35 31 29 31 42 35 20 20 19 19 18 17 18 23 24 23 23 23 24 21 20 18
25 19 38 41 39 22 25 29 30 23 17 11 16 20 29 29 32 30 28 31 35 40 38 33 29 21 39 11 6 12 14 16 17 15 18 21 21 22 24 25 25 22 21 20
37 38 39 53 53 51 44 45 44 32 26 34 28 22 31 33 35 27 27 30 35 22 29 30 25 24 18 15 16 12 10 10 13 16 18 19 22 25 26 27 25 25 23 22
35 28 25 25 33 28 31 33 29 33 33 30 18 15 28 28 24 24 18 30 35 28 21 25 29 37 27 27 21 15 11 16 14 14 16 18 23 25 27 28 28 27 26 24
30 34 34 26 31 37 46 47 49 44 23 19 23 27 27 28 34 36 35 39 36 39 27 35 21 21 26 26 23 18 14 11 10 11 15 19 22 26 28 30 30 29 29 27
26 27 30 35 41 42 46 51 54 46 46 34 35 29 46 42 43 36 29 32 34 27 19 25 33 37 31 27 27 25 19 16 13 13 16 16 21 27 30 29 30 32 32 29
33 37 34 40 40 40 47 46 51 47 51 49 45 44 42 35 27 24 24 24 21 17 17 16 15 16 21 21 18 21 22 23 20 20 17 18 21 26 30 28 30 34 33 32
36 32 25 31 45 42 31 39 31 25 26 36 28 20 13 13 14 16 15 16 18 14 12 15 19 23 24 23 19 21 24 25 22 21 20 19 21 23 26 27 30 39 37 34
36 40 31 34 35 18 22 17 13 21 22 17 20 17 16 16 16 15 15 14 13 6 6 9 14 14 16 15 22 23 22 22 25 22 20 21 22 22 23 23 24 26 28 29
24 27 27 19 23 27 37 30 29 28 31 23 22 22 24 20 16 12 13 7 5 10 13 17 19 21 21 24 24 24 26 28 27 24 22 21 22 20 22 25 27 30 30 27
14 18 17 27 5 6 6 7 9 12 16 7 12 12 15 9 6 5 4 5 9 12 16 20 21 22 27 25 26 26 28 29 26 21 20 21 21 21 22 24 28 31 31 31
21 20 17 25 11 10 17 25 23 10 5 12 10 7 2 2 1 4 9 10 12 13 16 20 27 26 28 32 31 27 26 25 20 17 19 20 23 23 24 24 25 28 30 30
14 14 11 14 7 5 15 8 10 6 5 4 9 3 8 12 10 10 14 17 18 19 20 18 19 20 23 17 25 26 25 20 18 17 19 20 22 22 24 24 24 26 28 30
9 20 19 20 22 24 22 11 7 7 5 4 8 11 8 10 12 14 16 18 15 13 15 16 13 14 14 22 28 23 19 20 20 20 18 20 23 23 22 19 20 23 24 24
28 28 31 32 18 25 9 19 6 1 6 10 11 13 15 16 18 17 14 14 15 18 20 15 8 13 11 8 12 17 18 19 19 17 17 19 21 21 20 19 21 19 15 16
33 33 27 26 19 26 12 10 9 8 10 14 17 18 18 18 18 19 20 20 20 22 23 19 14 14 16 15 16 18 16 17 17 16 16 17 17 17 17 16 14 11 13 14
24 20 20 28 25 19 13 11 10 13 18 21 19 20 21 21 22 23 25 22 22 19 20 18 15 12 17 17 17 17 16 15 16 16 15 14 15 16 16 17 17 18 18 19
Wind_Direction
280 273 267 296 279 284 289 284 282 280 291 293 289 287 286 279 273 263 259 265 267 269 270 268 266 264 257 255 260 269 270 269 274 272 263 250 244 236 237 239 242 244 246 246
257 256 292 278 274 278 282 281 279 286 291 287 287 285 285 283 274 269 269 269 268 272 269 266 264 264 263 257 256 257 262 260 264 267 259 244 240 235 237 238 239 239 241 242
249 226 276 280 276 282 284 282 287 284 292 285 290 290 291 287 278 279 274 272 266 267 267 266 261 260 258 260 261 250 249 254 255 254 245 240 240 233 234 236 242 239 239 240
264 262 267 274 266 280 288 291 292 288 296 287 293 286 285 287 288 277 265 280 262 254 257 259 260 257 256 256 258 245 242 245 254 252 248 240 246 246 232 229 231 234 237 238
249 272 281 279 272 283 284 292 286 293 291 288 276 248 275 284 271 276 288 270 257 255 260 259 259 263 259 251 252 247 241 240 259 255 238 228 235 240 236 232 232 235 236 239
276 281 279 288 291 278 281 278 286 291 279 259 264 232 269 277 282 289 293 261 259 261 262 260 260 259 251 247 245 239 225 240 249 242 227 221 228 234 235 232 232 233 234 240
282 278 283 281 283 284 277 273 281 271 205 244 269 238 250 280 282 288 289 277 251 274 276 267 263 261 251 241 239 230 211 233 232 231 225 220 228 226 227 229 228 228 234 248
275 296 313 218 256 278 277 271 246 262 263 272 275 253 259 277 283 286 271 275 273 285 286 272 270 269 254 236 220 208 211 227 222 223 220 219 225 221 224 223 222 225 235 240
280 270 276 273 272 275 277 268 274 263 263 265 257 263 268 272 267 268 270 272 282 283 280 274 271 263 245 230 215 195 198 229 224 218 220 221 222 221 222 221 219 227 232 230
282 299 271 275 281 275 281 286 284 265 266 262 250 251 244 245 284 286 284 282 284 278 270 264 267 261 231 209 190 201 214 217 223 221 223 220 219 218 216 214 218 227 223 226
294 286 282 287 282 286 288 278 275 287 270 269 272 264 260 269 269 275 273 275 275 270 259 254 251 237 217 227 222 209 210 216 221 230 233 227 221 219 217 215 219 218 223 224
291 284 277 279 279 279 280 276 277 260 266 262 273 274 270 267 262 273 278 271 259 247 250 243 229 208 199 209 218 205 200 201 227 230 225 223 219 219 218 216 219 217 224 227
291 279 282 281 286 282 269 275 276 277 273 262 254 258 265 261 263 256 282 298 286 291 248 211 223 220 197 193 205 211 216 226 220 233 237 225 220 221 220 219 218 220 225 229
286 274 270 275 279 284 285 278 273 281 272 268 248 268 264 261 282 291 297 287 279 282 281 271 235 213 202 211 207 186 219 230 237 250 254 241 232 229 226 223 220 222 226 229
295 279 279 278 288 288 284 281 281 269 265 268 282 274 277 287 294 293 283 279 286 277 274 264 251 235 213 227 221 229 221 233 240 245 249 240 238 235 229 228 235 231 228 230
295 288 289 287 293 294 280 280 269 260 265 275 268 261 279 294 292 282 275 279 288 260 292 250 249 217 207 217 232 228 222 223 227 241 242 237 235 233 238 233 251 238 233 234
288 283 280 279 290 299 273 269 270 268 270 272 263 275 306 289 277 279 276 272 280 278 263 253 259 239 258 238 234 236 226 229 235 243 243 242 246 243 247 254 258 254 233 234
273 282 280 273 284 276 271 279 264 266 273 277 275 279 291 295 291 277 280 268 252 242 190 222 247 256 246 250 242 244 233 236 236 235 232 241 245 244 244 251 258 256 250 240
272 268 273 252 255 271 277 274 284 276 278 283 279 283 287 281 278 275 274 238 236 241 245 256 260 256 247 236 237 237 233 234 233 229 232 236 241 247 251 254 257 254 255 256
328 312 278 295 270 247 293 280 275 314 278 304 311 299 274 258 250 280 265 273 263 264 265 268 266 274 255 244 241 235 234 231 230 232 227 234 244 249 256 256 255 251 249 253
325 335 280 276 266 280 271 279 288 256 323 336 326 322 120 122 208 274 314 305 300 291 286 279 278 275 260 251 230 227 227 223 223 224 230 239 241 249 262 264 257 244 243 250
313 316 333 327 275 271 319 339 266 263 97 2 350 285 261 284 257 291 305 318 311 302 300 294 279 284 281 224 217 221 211 216 227 227 230 240 239 251 259 258 257 255 246 247
307 315 300 294 279 295 332 295 13 62 17 343 340 333 319 298 293 296 307 314 308 308 311 320 258 269 251 209 204 196 202 204 210 215 219 230 246 250 253 252 257 253 245 247
308 304 300 301 315 332 48 42 135 65 310 311 317 314 310 308 306 305 310 308 297 300 309 305 297 246 240 184 184 197 192 195 204 211 225 239 245 246 247 250 247 236 239 247
301 305 310 309 322 343 34 17 7 326 315 316 314 308 303 303 300 297 300 297 302 300 303 297 285 261 219 199 197 190 197 206 210 215 234 247 243 238 238 232 239 237 233 231
309 309 315 305 319 323 341 345 342 305 296 305 290 290 297 296 297 291 289 294 293 293 291 285 272 269 232 205 202 212 215 213 219 232 250 248 230 225 225 224 228 224 215 209
Height
3087 3086 3079 3080 3079 3080 3078 3077 3071 3069 3072 3068 3066 3061 3061 3063 3060 3059 3056 3054 3055 3054 3057 3059 3061 3061 3063 3064 3065 3064 3062 3064 3066 3067 3069 3070 3074 3076 3078 3079 3081 3084 3085 3087
3079 3077 3078 3078 3077 3074 3073 3073 3069 3063 3066 3066 3058 3047 3051 3052 3051 3051 3051 3050 3048 3047 3046 3048 3052 3054 3054 3056 3058 3057 3057 3056 3058 3060 3062 3066 3067 3070 3072 3075 3077 3079 3080 3082
3071 3074 3074 3072 3072 3069 3069 3067 3064 3063 3061 3058 3055 3036 3038 3040 3040 3042 3041 3042 3041 3039 3038 3039 3041 3045 3045 3048 3049 3050 3051 3050 3051 3052 3054 3056 3060 3062 3066 3070 3073 3074 3076 3077
3070 3071 3070 3069 3066 3068 3061 3065 3061 3059 3059 3051 3050 3039 3023 3030 3030 3033 3033 3035 3032 3028 3024 3025 3029 3030 3032 3039 3041 3042 3044 3045 3046 3046 3047 3052 3056 3059 3061 3062 3065 3067 3070 3071
3066 3067 3068 3065 3062 3063 3053 3059 3057 3055 3052 3050 3036 3044 3015 3019 3019 3023 3026 3025 3022 3019 3017 3015 3016 3020 3024 3025 3029 3034 3037 3039 3040 3041 3043 3046 3049 3052 3054 3057 3059 3062 3064 3066
3060 3061 3061 3056 3055 3055 3053 3050 3049 3048 3046 3043 3017 3039 3020 3010 3011 3013 3016 3016 3015 3013 3012 3008 3007 3008 3012 3016 3019 3024 3029 3031 3032 3036 3037 3039 3043 3046 3049 3051 3054 3057 3060 3062
3056 3051 3051 3051 3047 3046 3044 3046 3043 3039 3035 3024 3023 3027 3010 3006 3009 3010 3009 3008 3008 3008 3006 3003 2999 2998 3000 3005 3008 3014 3019 3024 3025 3029 3031 3033 3038 3040 3043 3046 3049 3052 3054 3056
3052 3037 3042 3042 3042 3039 3036 3040 3040 3030 3022 3015 3018 3009 3002 3005 3005 3003 3003 3002 3002 3002 2999 2998 2995 2991 2991 2997 3003 3005 3007 3014 3018 3022 3023 3026 3032 3035 3038 3041 3045 3047 3049 3051
3049 3038 3039 3040 3036 3038 3030 3027 3028 3021 3016 3012 3004 2996 2999 2999 2995 2996 2995 2994 2993 2991 2988 2988 2987 2985 2986 2990 2992 2999 3003 3007 3012 3014 3016 3021 3028 3030 3033 3036 3039 3042 3044 3046
3043 3037 3027 3023 3026 3027 3027 3026 3020 3016 3010 2999 2992 2990 2986 2986 2985 2987 2988 2988 2987 2986 2982 2980 2980 2980 2981 2983 2979 2989 2998 3002 3008 3009 3011 3016 3022 3026 3028 3030 3034 3038 3040 3042
3039 3033 3022 3020 3013 3015 3019 3018 3016 3010 3005 2995 2988 2984 2986 2984 2983 2981 2980 2981 2982 2980 2976 2975 2974 2975 2968 2975 2981 2988 2993 2998 3003 3005 3008 3011 3015 3020 3024 3024 3029 3032 3035 3038
3032 3029 3020 3015 3011 3011 3010 3003 3005 3001 2992 2988 2981 2976 2982 2980 2977 2976 2973 2973 2969 2970 2970 2969 2969 2971 2973 2979 2986 2990 2994 2997 3000 3002 3005 3006 3010 3015 3018 3020 3024 3027 3030 3032
3022 3013 3010 3004 3004 3003 2999 2996 2995 2992 2986 2977 2976 2968 2971 2971 2969 2966 2967 2967 2964 2965 2961 2961 2961 2961 2963 2973 2979 2985 2990 2992 2993 2995 2998 3000 3004 3009 3012 3015 3019 3022 3024 3026
3017 3007 3005 2997 2996 2999 2995 2991 2987 2986 2980 2971 2965 2963 2964 2964 2964 2958 2959 2958 2957 2959 2956 2956 2950 2956 2963 2970 2973 2975 2983 2985 2987 2988 2991 2997 3000 3004 3007 3010 3012 3014 3017 3019
3007 2997 2997 2991 2987 2984 2981 2979 2973 2971 2968 2964 2960 2958 2952 2955 2954 2953 2952 2950 2948 2949 2951 2950 2950 2953 2956 2961 2968 2970 2976 2979 2983 2986 2990 2990 2995 2999 3002 3005 3008 3008 3009 3012
2998 2988 2987 2981 2977 2972 2967 2961 2958 2956 2955 2954 2948 2946 2947 2948 2946 2943 2944 2945 2941 2942 2943 2946 2950 2949 2951 2957 2961 2963 2969 2975 2978 2983 2985 2987 2991 2993 2995 2997 3000 3000 3003 3006
2989 2984 2980 2970 2967 2964 2957 2948 2947 2945 2944 2943 2940 2936 2941 2942 2940 2939 2939 2940 2941 2941 2942 2944 2946 2948 2949 2950 2955 2959 2962 2967 2972 2977 2980 2983 2986 2988 2990 2991 2992 2992 2992 2998
2977 2977 2976 2965 2962 2958 2944 2941 2943 2940 2937 2937 2933 2934 2936 2936 2935 2934 2935 2935 2937 2937 2938 2941 2942 2945 2947 2947 2949 2951 2955 2961 2967 2971 2975 2977 2980 2982 2983 2985 2986 2988 2990 2991
2967 2971 2967 2958 2951 2943 2938 2940 2939 2936 2931 2932 2930 2930 2930 2930 2931 2932 2931 2933 2935 2936 2938 2939 2939 2940 2942 2944 2945 2947 2951 2956 2961 2965 2969 2971 2974 2975 2977 2979 2981 2982 2984 2987
2962 2963 2961 2953 2941 2938 2934 2934 2933 2930 2928 2926 2927 2926 2926 2927 2929 2930 2931 2931 2932 2933 2934 2933 2933 2933 2933 2935 2938 2941 2945 2950 2954 2958 2962 2965 2967 2968 2970 2971 2972 2974 2977 2980
2961 2957 2953 2945 2940 2932 2932 2932 2928 2927 2931 2925 2924 2924 2925 2927 2929 2929 2928 2929 2929 2929 2928 2927 2925 2922 2922 2924 2929 2935 2939 2944 2948 2951 2953 2956 2959 2961 2963 2964 2964 2966 2969 2972
2962 2957 2951 2946 2938 2932 2928 2926 2925 2923 2923 2925 2925 2925 2926 2926 2926 2926 2925 2925 2923 2923 2921 2920 2917 2916 2912 2913 2921 2927 2932 2938 2940 2942 2947 2951 2953 2955 2956 2957 2958 2959 2962 2965
2961 2960 2955 2953 2938 2932 2927 2924 2923 2923 2924 2924 2924 2926 2925 2925 2925 2923 2923 2922 2921 2919 2917 2916 2914 2914 2910 2911 2916 2921 2926 2930 2934 2938 2942 2945 2947 2948 2950 2952 2953 2954 2957 2959
2954 2952 2946 2942 2931 2927 2923 2923 2921 2926 2926 2925 2923 2923 2923 2922 2921 2919 2919 2919 2918 2917 2915 2914 2912 2912 2913 2912 2914 2919 2924 2927 2930 2933 2937 2939 2941 2943 2945 2947 2948 2950 2952 2954
2952 2947 2940 2935 2929 2927 2926 2924 2924 2925 2924 2922 2921 2920 2919 2918 2917 2916 2915 2914 2913 2912 2910 2910 2910 2910 2912 2914 2916 2919 2922 2925 2927 2930 2932 2934 2936 2938 2940 2942 2944 2946 2948 2950
2944 2940 2938 2930 2929 2928 2926 2924 2923 2922 2921 2919 2917 2916 2915 2914 2912 2911 2910 2910 2908 2906 2905 2905 2905 2907 2908 2912 2914 2917 2919 2921 2923 2926 2928 2929 2932 2934 2936 2938 2941 2943 2944 2947